Regional Weather Roundup
Issued by NWS

Home | Current Version | Previous Version | Graphics & Text | Print | Product List | Glossary On
Versions: 1 2 3 4 5 6 7 8 9 10 11 12 13 14 15 16 17 18 19 20 21 22 23 24 25 26 27 28 29 30 31 32 33 34 35 36 37 38 39 40 41 42 43 44 45 46 47 48 49 50
000
ASUS43 KMPX 010301
RWRMN
WEATHER ROUNDUP FOR MINNESOTA
NATIONAL WEATHER SERVICE TWIN CITIES/CHANHASSEN MN
1000 PM CDT TUE SEP 30 2014


NOTE: "FAIR" INDICATES FEW OR NO CLOUDS BELOW 12,000 FEET WITH NO
SIGNIFICANT WEATHER AND/OR OBSTRUCTIONS TO VISIBILITY. N/A MEANS
CURRENT SKY AND/OR WEATHER CONDITIONS ARE NOT AVAILABLE.

MNZ060>063-068>070-010400-
   Twin Cities Metro

CITY           SKY/WX    TMP DP  RH WIND       PRES   REMARKS
TWIN CITIES    CLOUDY    53  45  74 SE22      29.86F
ST PAUL        CLOUDY    52  46  80 SE17      29.89F
CRYSTAL        CLOUDY    55  44  66 SE9G23    29.86F
BLAINE         CLOUDY    54  46  76 SE13G18   29.86F
LAKEVILLE      CLOUDY    52  46  82 SE14G20   29.87F
EDEN PRAIRIE   CLOUDY    54  46  74 SE17G28   29.83F
SOUTH ST PAUL  CLOUDY    53  45  74 SE9G20    29.89F
LAKE ELMO      MOCLDY    52  45  76 SE8G17    29.92F
$$
MNZ001>005-007-008-013>017-022>024-027-028-010400-
   Northwest Minnesota

CITY           SKY/WX    TMP DP  RH WIND       PRES   REMARKS
BEMIDJI        CLOUDY    53  45  74 SE20G26   29.77F
HALLOCK        CLOUDY    57  46  67 SE20G28   29.64F
ROSEAU         LGT RAIN  55  46  71 SE13      29.72F
WARROAD        LGT RAIN  54  45  71 SE12G22   29.75F
THIEF RVR FALL CLOUDY    55  45  67 SE14      29.69F
CROOKSTON      CLOUDY    57  46  67 SE22G28   29.66F
FOSSTON        CLOUDY    54  45  71 SE16G28   29.71F
DETROIT LAKES  CLOUDY    54  46  76 SE22G28   29.73F
PARK RAPIDS    CLOUDY    53  44  71 SE17G25   29.78F
MAHNOMEN       CLOUDY    55  45  70 SE23G31   29.69F
$$
MNZ006-009>011-018-025>026-010400-
   North Central Minnesota

CITY           SKY/WX    TMP DP  RH WIND       PRES   REMARKS
BAUDETTE       MOCLDY    51  42  71 SE9G21    29.79R
FLAG ISLAND    CLOUDY    55  45  67 SE21      29.77R
INTL FALLS     MOCLDY    48  41  76 SE9G18    29.86R
WASKISH        MOCLDY    52  45  76 E14       29.79F
BIG FORK       MOCLDY    46  41  81 SE8       29.87F
LONGVILLE      CLOUDY    50  45  81 SE5       29.84S
GRAND RAPIDS   CLOUDY    45  39  81 SE9G16    29.88S
CRANE LAKE     PTCLDY    43  39  87 CALM      29.93S
ORR            MOCLDY    43  36  75 SE10G18   29.87F
COOK           MOCLDY    43  39  87 E7        29.91F
WALKER         CLOUDY    54  43  66 SE10G16   29.80F
$$
MNZ012-019>021-037-010400-
   Northeast Minnesota

CITY           SKY/WX    TMP DP  RH WIND       PRES   REMARKS
DULUTH         CLOUDY    45  42  89 E18G26    29.93F
ELY            CLEAR     39  37  93 SE6       29.95S
HIBBING        CLOUDY    45  40  82 SE12      29.92S
EVELETH        CLOUDY    43  39  87 E7        29.93F
DULUTH HARBOR  CLOUDY    48  45  87 E18       29.97F
TWO HARBORS    CLOUDY    46  41  81 E12       29.96F
SILVER BAY     PTCLDY    43  43 100 NE6       29.99S
GRAND MARAIS     N/A     45  38  76 VRB6      30.03F
G MARAIS ARPRT CLEAR     37  34  87 E6        30.02S
$$
MNZ029>031-032-039>041-046>048-054>057-064-010400-
   West Central Minnesota

CITY           SKY/WX    TMP DP  RH WIND       PRES   REMARKS
FERGUS FALLS   CLOUDY    57  46  67 SE22G30   29.71S
WHEATON        CLOUDY    57  52  82 SE24      29.67F
MORRIS         MOCLDY    57  52  82 SE21G29   29.70F
ALEXANDRIA     MOCLDY    53  46  77 SE20G28   29.78S
ELBOW LAKE     CLOUDY    55  49  79 SE21G30   29.71F
WADENA         CLOUDY    52  45  76 SE18      29.78R
GLENWOOD       MOCLDY    54  48  82 SE13      29.78F
APPLETON       MOCLDY    61  54  77 SE15G22   29.71F
BENSON         MOCLDY    57  52  82 S16G22    29.74F
ORTONVILLE     CLOUDY    61  55  82 SE15G23   29.69S
MADISON        PTCLDY    63  57  82 SE16G22   29.71S
WILLMAR        FAIR      57  52  82 SE14      29.79F
$$
MNZ033>034-036-042>043-049>051-058-059-010400-
   Central Minnesota

CITY           SKY/WX    TMP DP  RH WIND       PRES   REMARKS
ST CLOUD       CLOUDY    56  45  66 SE10G18   29.85R
SAUK CENTRE    MOCLDY    53  46  78 SE13      29.80F
PAYNESVILLE    CLOUDY    53  47  81 E13G18    29.81F
AITKIN         CLOUDY    52  45  76 E9        29.84F
PINE RIVER     CLOUDY    54  46  76 SE14      29.87F
BRAINERD       CLOUDY    52  43  71 VRB6      29.84F
STAPLES        CLOUDY    52  43  71 SE10      29.81R
LONG PRAIRIE   FAIR      50  45  81 E10G18    29.81F
LITTLE FALLS   CLOUDY    52  43  71 SE10      29.84S
LITCHFIELD     CLOUDY    57  52  82 SE9       29.83S
BUFFALO        CLOUDY    54  46  72 E13G18    29.84F
MAPLE LAKE     CLOUDY    56  49  78 SE7       29.85F
$$
MNZ037-044-045-052-053-010400-
   East Central Minnesota

CITY           SKY/WX    TMP DP  RH WIND       PRES   REMARKS
PRINCETON      CLOUDY    54  45  71 SE10      29.89R
MORA           MOCLDY    50  43  76 SE9       29.90S
CAMBRIDGE      MOCLDY    54  43  66 SE7       29.88R
RUSH CITY      MOCLDY    50  44  79 SE8       29.88F
MOOSE LAKE     CLOUDY    45  41  87 E7        29.89F
HINCKLEY       FAIR      52  45  76 E7        29.90F
CLOQUET        CLOUDY    45  43  93 E13G18    29.93S
MCGREGOR       PTCLDY    45  43  93 SE8       29.89R
$$
MNZ071>073-080-081-089-090-097-098-010400-
   Southwest Minnesota

CITY           SKY/WX    TMP DP  RH WIND       PRES   REMARKS
MONTEVIDEO     PTCLDY    59  55  88 S13G20    29.75S
GRANITE FALLS  PTCLDY    58  55  90 SE14G20   29.77S
CANBY          PTCLDY    61  57  88 SE13G20   29.73R
MARSHALL       CLOUDY    61  55  82 S16       29.74F
REDWOOD FALLS  MOCLDY    60  56  86 SE17      29.78F
OLIVIA         MOCLDY    59  54  82 SE12      29.78F
PIPESTONE      PTCLDY    61  57  88 S18       29.76R
WINDOM         CLOUDY    59  57  94 SE12      29.81F
WORTHINGTON    PTCLDY    59  57  94 SE10G21   29.81S
JACKSON        CLOUDY    59  55  88 S9        29.83S
TRACY          PTCLDY    60  58  92 S13G20    29.77S
SLAYTON        PTCLDY    58  58  97 SE14      29.79F
$$
MNZ065>067-074>077-082>085-091>093-010400-
   South Central Minnesota

CITY           SKY/WX    TMP DP  RH WIND       PRES   REMARKS
MANKATO        CLOUDY    57  48  72 S12G25    29.81F
NEW ULM        CLOUDY    59  57  94 SE10G16   29.81S
ST JAMES       CLOUDY    61  55  82 SE8       29.83S
FAIRMONT       CLOUDY    59  52  77 SE14      29.84R
GLENCOE        CLOUDY    58  49  72 E9        29.81F
FARIBAULT      CLOUDY    55  48  76 SE14G21   29.87F
OWATONNA       CLOUDY    55  46  71 SE16G24   29.88F
WASECA         LGT RAIN  55  45  67 SE17G24   29.86F
ALBERT LEA     CLOUDY    57  48  72 SE9       29.89F
$$
MNZ078>079-086>088-094>096-010400-
   Southeast Minnesota

CITY           SKY/WX    TMP DP  RH WIND       PRES   REMARKS
ROCHESTER      CLOUDY    51  45  79 S7        29.96R
RED WING       CLOUDY    54  45  71 S7        29.96R
STANTON        CLOUDY    53  46  78 SE5       29.89F
DODGE CENTER   CLOUDY    54  46  76 SE8       29.93F
WINONA         MOCLDY    48  45  87 SE9       29.98R
AUSTIN         CLOUDY    54  46  76 SE8       29.91F
PRESTON        CLOUDY    49  44  82 SE14      29.94F
$$
ABBREVIATIONS USED IN REMARKS
   TC - TEMPERATURES IN CELSIUS
  WCI - WIND CHILL INDEX
   HX - HEAT INDEX
  VSB - VISIBILITY
$$



USA.gov is the U.S. government's official web portal to all federal, state and local government web resources and services.